Hourly Weather Semykivtsi

Today, 17 January, Sunday

Time Temperature Precipitation Wind Pressure Humidity
00:00 -12°C° 0.1 mm 2 mps 729 mmHg 94%
01:00 -13°C° 0.1 mm 3 mps 729 mmHg 94%
02:00 -12°C° 0 mm 2 mps 729 mmHg 94%
03:00 -12°C° 0 mm 2 mps 729 mmHg 93%
04:00 -12°C° 0 mm 2 mps 729 mmHg 92%
05:00 -12°C° 0 mm 2 mps 729 mmHg 91%
06:00 -12°C° 0 mm 2 mps 729 mmHg 91%
07:00 -12°C° 0 mm 2 mps 729 mmHg 90%
08:00 -12°C° 0 mm 2 mps 729 mmHg 91%
09:00 -10°C° 0 mm 2 mps 729 mmHg 91%
10:00 -10°C° 0 mm 3 mps 730 mmHg 90%
11:00 -9°C° 0 mm 3 mps 730 mmHg 89%
12:00 -9°C° 0 mm 3 mps 730 mmHg 88%
13:00 -9°C° 0 mm 4 mps 730 mmHg 86%
14:00 -9°C° 0 mm 4 mps 730 mmHg 84%
15:00 -9°C° 0 mm 4 mps 730 mmHg 86%
16:00 -10°C° 0 mm 4 mps 730 mmHg 88%
17:00 -10°C° 0 mm 4 mps 731 mmHg 90%
18:00 -11°C° 0.1 mm 4 mps 731 mmHg 91%
19:00 -13°C° 0.1 mm 5 mps 731 mmHg 91%
20:00 -14°C° 0.1 mm 5 mps 731 mmHg 91%
21:00 -14°C° 0.1 mm 5 mps 731 mmHg 90%
22:00 -15°C° 0.1 mm 5 mps 731 mmHg 89%
23:00 -15°C° 0.1 mm 5 mps 732 mmHg 88%

Tomorrow, 18 January, Monday

Time Temperature Precipitation Wind Pressure Humidity
00:00 -17°C° 0 mm 5 mps 732 mmHg 88%
01:00 -18°C° 0 mm 5 mps 732 mmHg 89%
02:00 -18°C° 0 mm 5 mps 732 mmHg 89%
03:00 -19°C° 0 mm 5 mps 732 mmHg 90%
04:00 -19°C° 0 mm 5 mps 732 mmHg 90%
05:00 -19°C° 0 mm 4 mps 732 mmHg 91%
06:00 -19°C° 0 mm 4 mps 732 mmHg 91%
07:00 -19°C° 0 mm 4 mps 733 mmHg 92%
08:00 -19°C° 0 mm 4 mps 733 mmHg 92%
09:00 -19°C° 0 mm 4 mps 733 mmHg 91%
10:00 -19°C° 0 mm 4 mps 733 mmHg 89%
11:00 -18°C° 0 mm 4 mps 734 mmHg 88%
12:00 -18°C° 0 mm 4 mps 733 mmHg 87%
13:00 -17°C° 0 mm 4 mps 733 mmHg 86%
14:00 -16°C° 0 mm 4 mps 733 mmHg 85%
15:00 -16°C° 0 mm 3 mps 733 mmHg 87%
16:00 -16°C° 0 mm 3 mps 733 mmHg 89%
17:00 -16°C° 0 mm 3 mps 733 mmHg 91%
18:00 -16°C° 0 mm 2 mps 733 mmHg 91%
19:00 -16°C° 0 mm 2 mps 733 mmHg 92%
20:00 -16°C° 0 mm 2 mps 734 mmHg 92%
21:00 -16°C° 0 mm 2 mps 734 mmHg 92%
22:00 -16°C° 0 mm 2 mps 734 mmHg 92%
23:00 -16°C° 0 mm 2 mps 734 mmHg 92%

Day after tomorrow, 19 January, Tuesday

Time Temperature Precipitation Wind Pressure Humidity
00:00 -16°C° 0 mm 2 mps 734 mmHg 92%
01:00 -14°C° 0 mm 1 mps 734 mmHg 92%
02:00 -14°C° 0 mm 1 mps 734 mmHg 91%
03:00 -14°C° 0 mm 1 mps 733 mmHg 91%
04:00 -14°C° 0 mm 1 mps 733 mmHg 91%
05:00 -14°C° 0 mm 1 mps 733 mmHg 91%
06:00 -13°C° 0 mm 1 mps 733 mmHg 90%
07:00 -15°C° 0 mm 2 mps 733 mmHg 90%
08:00 -15°C° 0 mm 2 mps 733 mmHg 89%
09:00 -14°C° 0 mm 2 mps 733 mmHg 88%
10:00 -13°C° 0 mm 2 mps 733 mmHg 87%
11:00 -10°C° 0 mm 2 mps 733 mmHg 86%
12:00 -9°C° 0.2 mm 2 mps 732 mmHg 88%
13:00 -10°C° 0.2 mm 3 mps 732 mmHg 90%
14:00 -9°C° 0.2 mm 3 mps 732 mmHg 93%
15:00 -9°C° 0.2 mm 3 mps 731 mmHg 93%
16:00 -8°C° 0.2 mm 2 mps 731 mmHg 94%
17:00 -8°C° 0.2 mm 2 mps 731 mmHg 95%
18:00 -8°C° 0 mm 2 mps 731 mmHg 93%
19:00 -8°C° 0 mm 2 mps 731 mmHg 92%
20:00 -8°C° 0 mm 2 mps 731 mmHg 90%
21:00 -8°C° 0 mm 2 mps 731 mmHg 88%
22:00 -8°C° 0 mm 2 mps 731 mmHg 87%
23:00 -7°C° 0 mm 2 mps 731 mmHg 85%

20 January, Wednesday

Time Temperature Precipitation Wind Pressure Humidity
00:00 -7°C° 0 mm 2 mps 731 mmHg 84%
01:00 -8°C° 0 mm 3 mps 731 mmHg 84%
02:00 -8°C° 0 mm 3 mps 730 mmHg 84%
03:00 -8°C° 0 mm 3 mps 730 mmHg 83%
04:00 -8°C° 0 mm 3 mps 730 mmHg 83%
05:00 -8°C° 0 mm 3 mps 729 mmHg 83%
06:00 -7°C° 0 mm 3 mps 729 mmHg 84%
07:00 -7°C° 0 mm 3 mps 729 mmHg 84%
08:00 -7°C° 0 mm 3 mps 730 mmHg 85%
09:00 -6°C° 0.3 mm 3 mps 730 mmHg 89%
10:00 -5°C° 0.3 mm 4 mps 730 mmHg 92%
11:00 -5°C° 0.3 mm 4 mps 730 mmHg 95%
12:00 -4°C° 0.5 mm 4 mps 730 mmHg 96%
13:00 -3°C° 0.5 mm 4 mps 730 mmHg 96%
14:00 -3°C° 0.5 mm 4 mps 730 mmHg 96%
15:00 -2°C° 0.1 mm 3 mps 730 mmHg 95%
16:00 -2°C° 0.1 mm 3 mps 730 mmHg 93%
17:00 -4°C° 0.1 mm 3 mps 730 mmHg 92%
18:00 -4°C° 0 mm 3 mps 730 mmHg 91%
19:00 -5°C° 0 mm 3 mps 730 mmHg 90%
20:00 -5°C° 0 mm 3 mps 730 mmHg 89%
21:00 -5°C° 0 mm 3 mps 730 mmHg 88%
22:00 -5°C° 0 mm 3 mps 730 mmHg 87%
23:00 -5°C° 0 mm 3 mps 730 mmHg 87%

21 January, Thursday

Time Temperature Precipitation Wind Pressure Humidity
00:00 -5°C° 0 mm 3 mps 730 mmHg 86%
01:00 -4°C° 0 mm 3 mps 730 mmHg 86%
02:00 -4°C° 0 mm 3 mps 730 mmHg 85%
03:00 -4°C° 0 mm 3 mps 730 mmHg 85%
04:00 -4°C° 0 mm 3 mps 730 mmHg 84%
05:00 -4°C° 0 mm 3 mps 729 mmHg 84%
06:00 -4°C° 0 mm 3 mps 730 mmHg 84%
07:00 -4°C° 0 mm 3 mps 730 mmHg 83%
08:00 -4°C° 0 mm 3 mps 730 mmHg 83%
09:00 -2°C° 0 mm 3 mps 730 mmHg 84%
10:00 -2°C° 0 mm 4 mps 730 mmHg 85%
11:00 -1°C° 0 mm 4 mps 730 mmHg 87%
12:00 0°C° 0 mm 4 mps 730 mmHg 89%
13:00 0°C° 0 mm 4 mps 730 mmHg 91%
14:00 0°C° 0 mm 4 mps 730 mmHg 94%
15:00 0°C° 0 mm 4 mps 729 mmHg 90%
16:00 -1°C° 0 mm 4 mps 729 mmHg 87%
17:00 -1°C° 0 mm 4 mps 729 mmHg 84%
18:00 -1°C° 0 mm 4 mps 729 mmHg 84%
19:00 -1°C° 0 mm 4 mps 729 mmHg 84%
20:00 -1°C° 0 mm 5 mps 729 mmHg 83%
21:00 -1°C° 0 mm 5 mps 729 mmHg 82%
22:00 -1°C° 0 mm 5 mps 729 mmHg 81%
23:00 -1°C° 0 mm 5 mps 729 mmHg 80%

22 January, Friday

Time Temperature Precipitation Wind Pressure Humidity
00:00 0°C° 0 mm 5 mps 729 mmHg 79%
01:00 0°C° 0 mm 5 mps 729 mmHg 78%
02:00 +1°C° 0 mm 5 mps 729 mmHg 76%
03:00 0°C° 0 mm 5 mps 728 mmHg 77%
04:00 0°C° 0 mm 5 mps 728 mmHg 78%
05:00 0°C° 0 mm 4 mps 728 mmHg 79%
06:00 0°C° 0 mm 4 mps 728 mmHg 79%
07:00 0°C° 0 mm 4 mps 728 mmHg 79%
08:00 0°C° 0 mm 4 mps 728 mmHg 79%
09:00 +1°C° 0 mm 3 mps 728 mmHg 82%
10:00 +1°C° 0 mm 3 mps 728 mmHg 85%
11:00 +2°C° 0 mm 3 mps 728 mmHg 88%
12:00 +2°C° 0 mm 3 mps 728 mmHg 88%
13:00 +2°C° 0 mm 3 mps 727 mmHg 89%
14:00 +2°C° 0 mm 3 mps 727 mmHg 90%
15:00 +2°C° 0 mm 3 mps 726 mmHg 88%
16:00 +2°C° 0 mm 3 mps 726 mmHg 86%
17:00 +1°C° 0 mm 3 mps 726 mmHg 84%
18:00 0°C° 0 mm 4 mps 726 mmHg 84%
19:00 0°C° 0 mm 4 mps 725 mmHg 85%
20:00 0°C° 0 mm 4 mps 725 mmHg 86%
21:00 +1°C° 0 mm 4 mps 725 mmHg 86%
22:00 +1°C° 0 mm 4 mps 724 mmHg 86%
23:00 +1°C° 0 mm 4 mps 724 mmHg 86%
Show more

We Need Your Consent

Meteoprog and our Service Providers may store and access personal data such as cookies, device identifiers or other similar technologies on your device and process such data to personalise content and ads, as well as provide social media features and to analyse the traffic.

  • Store and/or access information on your device

    Cookies, device identifiers or other information can be stored or accessed on your device for the purposes indicated above.

  • Personalised ads and content, ad and content measurement, audience insights, and products development

    Ads and content can be personalised based on a profile. More data can be added to better personalise ads and content. Ad and content performance can be measured. Insights about the audience who saw the ads and content can be derived. Such data can be used to develop or improve user’s experience, systems and software.

By clicking ‘I Agree’ you will allow the use of indicated cookies, device identifiers, web beacons or other similar technologies. Your settings can be changed in the browser on your device.

For certain purposes, legitimate interests may be relied on, rather than consent. You can read more about this in our Privacy and Cookie Policy.